Date,TemperatureHighF,TemperatureAvgF,TemperatureLowF,DewpointHighF,DewpointAvgF,DewpointLowF,HumidityHigh,HumidityAvg,HumidityLow,PressureMaxIn,PressureMinIn,WindSpeedMaxMPH,WindSpeedAvgMPH,GustSpeedMaxMPH,PrecipitationSumIn
2013-10-1,74.0,61.0,51.6,60.0,54.7,50.0,99,82,54,29.96,29.85,11,2,12,0.00
2013-10-2,71.8,66.6,60.9,63.0,60.4,56.0,96,82,72,29.96,29.83,25,4,25,0.00
2013-10-3,76.6,66.1,58.4,61.0,56.8,52.0,92,74,43,30.08,29.96,12,2,12,0.00
2013-10-4,72.3,61.8,56.7,62.0,57.6,54.0,96,87,69,30.08,29.96,12,3,12,0.00
2013-10-5,66.8,61.0,57.0,63.0,58.7,56.0,99,93,77,30.12,29.95,9,3,9,0.58
2013-10-6,62.1,59.1,56.9,61.0,57.9,55.0,99,96,84,30.20,30.11,20,4,20,0.05
2013-10-7,74.9,67.4,62.1,72.0,66.6,61.0,100,98,90,30.12,29.94,22,5,22,0.15
2013-10-8,66.1,59.0,51.8,65.0,50.1,46.0,99,74,50,30.34,29.89,16,4,16,0.01
2013-10-9,60.1,53.5,49.1,49.0,46.0,42.0,88,76,62,30.42,30.33,21,5,21,0.00
2013-10-10,65.4,57.0,49.3,57.0,53.5,46.0,97,89,76,30.33,30.12,20,6,21,0.00
2013-10-11,66.1,58.8,51.5,60.0,56.3,50.0,99,93,80,30.12,30.06,20,6,20,0.00
2013-10-12,66.2,57.9,51.7,57.0,53.4,50.0,96,86,67,30.35,30.10,22,6,22,0.00
2013-10-13,60.1,53.0,47.8,50.0,47.2,44.0,94,82,65,30.41,30.32,21,4,21,0.00
2013-10-14,62.1,52.5,44.6,51.0,46.6,41.0,91,81,65,30.39,30.27,9,3,10,0.00
2013-10-15,65.9,56.7,50.2,54.0,50.3,47.0,96,81,54,30.27,30.15,12,3,12,0.00
2013-10-16,60.3,55.9,50.1,59.0,54.7,49.0,100,97,94,30.16,29.90,14,4,14,0.00
2013-10-17,65.7,60.6,56.0,62.0,59.3,56.0,100,96,89,29.92,29.76,17,4,17,0.00
2013-10-18,67.7,63.1,58.1,63.0,56.1,47.0,100,80,57,29.93,29.65,23,6,23,0.05
2013-10-19,63.7,57.4,53.6,54.0,46.5,43.0,93,68,51,30.00,29.77,20,3,20,0.00
2013-10-20,61.6,57.4,52.4,59.0,45.2,37.0,97,67,42,30.03,29.71,21,5,21,0.01
2013-10-21,62.9,55.9,48.6,48.0,44.3,39.0,76,66,49,30.12,30.02,18,3,18,0.00
2013-10-22,59.0,53.9,45.2,53.0,48.1,36.0,95,82,65,30.03,29.72,18,3,18,0.00
2013-10-23,48.2,43.0,37.7,39.0,36.1,32.0,93,76,63,29.80,29.58,14,2,14,0.19
2013-10-24,48.9,43.9,38.4,37.0,31.0,24.0,83,61,42,29.89,29.62,25,7,25,0.06
2013-10-25,48.4,42.1,37.8,35.0,29.8,26.0,76,61,48,30.16,29.88,24,5,24,0.00
2013-10-26,52.4,46.4,39.4,41.0,35.1,28.0,74,64,56,30.17,29.87,35,7,35,0.17
2013-10-27,53.2,47.8,41.9,42.0,33.9,29.0,80,58,46,30.07,29.82,25,6,27,0.00
2013-10-28,53.5,45.6,38.4,40.0,33.7,29.0,76,63,51,30.32,30.06,23,5,25,0.01
2013-10-29,49.9,40.0,33.6,36.0,30.6,26.0,85,69,43,30.40,30.31,14,3,14,0.00
2013-10-30,52.7,44.5,36.6,45.0,39.5,32.0,88,83,73,30.36,30.20,16,2,17,0.01
2013-10-31,61.7,53.7,43.9,58.0,49.7,40.0,97,87,80,30.24,29.87,23,4,25,0.01